User: anonymous   Login
Location: Tauranga
(37.6860°S, 176.1670°E)
Time: 22:06:54
(UTC+13:00)
Language:

Cosmos 1741 Rocket - Orbit

View from above orbital plane
View from above orbital plane
View from above satellite
View from above satellite

Ground track
Ground track

The orbit data is extracted from the following two-line orbital elements,

1 16682U 86030B   19293.05500873 -.00000107  00000-0 -27709-4 0  9991
2 16682  74.0234  96.3076 0015422 227.6216 266.4039 14.35891271753877
Epoch (UTC): 20 October 2019 01:19:12
Eccentricity: 0.0015422
inclination: 74.0234°
perigee height: 761 km
apogee height: 783 km
right ascension of ascending node: 96.3076°
argument of perigee: 227.6216°
revolutions per day: 14.35891271
mean anomaly at epoch: 266.4039°
orbit number at epoch: 75387

The dashed part of the orbit path shows where the satellite is in the earth's shadow,  

DLR